Regional Weather Roundup
Issued by NWS

Home | Current Version | Previous Version | Graphics & Text | Print | Product List | Glossary On
Versions: 1 2 3 4 5 6 7 8 9 10 11 12 13 14 15 16 17 18 19 20 21 22 23 24 25 26 27
000
ASUS45 KCYS 260310
RWRWY

WYOMING REGIONAL WEATHER ROUNDUP
NATIONAL WEATHER SERVICE CHEYENNE WY
900 PM MDT MON SEP 25 2017

NOTE:  "FAIR" INDICATES FEW OR NO CLOUDS BELOW 12,000 FEET
WITH NO SIGNIFICANT WEATHER AND/OR OBSTRUCTIONS TO VISIBILITY.

WYZ001-260400-
YELLOWSTONE NATIONAL PARK

CITY           SKY/WX    TMP DP  RH WIND       PRES   REMARKS
LK YELLOWSTONE NOT AVBL
W YELLOWSTONE  NOT AVBL

$$
WYZ002>013-054>058-071-098>099-260400-
NORTHERN WYOMING

CITY           SKY/WX    TMP DP  RH WIND       PRES   REMARKS
JACKSON        CLOUDY    40  31  70 S8        30.17R WCI  34
CODY           CLOUDY    45  38  76 S3        30.10R
GREYBULL       CLOUDY    47  43  86 CALM      30.08R
WORLAND        FAIR      41  39  93 CALM      30.08S
SHERIDAN       FAIR      44  41  89 CALM      30.07F
BUFFALO        CLOUDY    44  37  76 W3        30.11S
GILLETTE       CLOUDY    44  41  89 S5        30.09S
HULETT         FAIR      41  41 100 E3        30.10F
NEWCASTLE      CLOUDY    45  37  76 NW6       30.10S

$$
WYZ014>020-022>026-101>103-260400-
CENTRAL WYOMING

CITY           SKY/WX    TMP DP  RH WIND       PRES   REMARKS
BIG PINEY      FAIR      32  28  85 N10       30.18R WCI  24
PINEDALE       FAIR      34  30  86 NW8       30.18S WCI  27
DUBOIS         CLOUDY    37  28  70 W13       30.14S WCI  29
LANDER         CLOUDY    45  36  70 SW8       30.10R
RIVERTON       CLOUDY    44  37  76 NE5       30.12R
CASPER         FAIR      40  34  79 W6        30.11R
DOUGLAS        MOCLDY    45  39  79 S6        30.11R

$$
WYZ021-027>030-104>119-260400-
SOUTHERN WYOMING

CITY           SKY/WX    TMP DP  RH WIND       PRES   REMARKS
EVANSTON       MOCLDY    40  32  73 N7        30.18R
FORT BRIDGER   CLEAR     39  30  70 NW3       30.21R
ROCK SPRINGS   CLOUDY    41  30  65 W9        30.16R
DIXON          FAIR      38  31  76 E5        30.18R WCI  34
RAWLINS        FAIR      38  31  76 SW5       30.14R WCI  34
SARATOGA       FAIR      36  32  87 SW9       30.16R WCI  29
LARAMIE        CLOUDY    41  32  70 NE8       30.14R
CHEYENNE       LGT RAIN  40  38  93 E6        30.14R
TORRINGTON     MOCLDY    48  43  82 CALM      30.09S
PINE BLUFFS    CLOUDY    43  41  93 MISG      30.14S

$$




USA.gov is the U.S. government's official web portal to all federal, state and local government web resources and services.